Location: Soueix
(42.8929°N, 1.2124°E)
Time: 09:34:00
(UTC+00:00)

Daily predictions for brighter satellites

Satellite Brightness Start Highest point End
(mag) Time Altitude Azimuth Time Altitude Azimuth Time Altitude Azimuth
Timation 2 Rocket 4.5 16:52:59 10° S 16:59:32 50° ESE 17:06:06 10° NE
ATLAS 5 CENTAUR R/B 1.8 16:57:12 10° NNW 17:01:42 76° NE 17:07:17 10° SE
Cosmos 1484 Rocket 3.3 16:59:00 10° S 17:02:26 57° W 17:05:55 10° NNW
Iridium 4 Rocket 4.3 16:59:28 10° SSW 17:04:27 52° W 17:09:04 10° N
Cosmos 2233 Rocket 4.1 17:00:23 10° S 17:06:41 84° E 17:13:02 10° N
Cosmos 407 Rocket 3.7 17:02:47 10° S 17:07:48 52° ESE 17:12:47 10° NNE
CBERS-1 4.5 17:03:24 10° S 17:08:28 69° WSW 17:13:35 10° NNW
Cosmos 2061 Rocket 4.0 17:02:55 10° S 17:09:12 79° E 17:15:28 10° N
RESURS DK-1 3.0 17:06:56 10° N 17:10:33 31° ENE 17:14:07 10° ESE
Cosmos 1782 Rocket 3.8 17:09:11 10° SSW 17:13:35 75° W 17:18:03 10° N
ISS -3.6 17:10:42 10° WSW 17:14:02 70° NNW 17:17:12 11° NE
CZ-2D R/B 3.0 17:11:45 10° SSE 17:14:46 45° ENE 17:17:48 10° N
Cosmos 1869 3.3 17:12:04 10° SSE 17:15:26 45° E 17:18:48 10° NNE
SPOT 1/Viking Rocket 4.4 17:13:16 10° ESE 17:17:35 28° ENE 17:21:56 10° N
Cosmos 1300 Rocket 4.2 17:13:28 10° SSW 17:17:48 59° W 17:22:08 10° N
SJ-12 3.7 17:17:49 10° SSE 17:21:33 58° ENE 17:25:17 10° N
IGS 5A 4.2 17:18:34 10° S 17:22:28 56° W 17:26:25 10° NNW
COSMO-SKYMED 1 3.8 17:21:26 10° NE 17:24:24 19° E 17:27:23 10° SE
AQUARIUS 4.2 17:21:04 10° SSE 17:25:20 53° ENE 17:29:38 10° N
SL-12 R/B(2) 4.3 17:17:50 10° SSW 17:25:34 80° ESE 17:35:02 10° NE
BREEZE-M DEB (TANK) 2.3 17:26:25 10° W 17:28:42 54° NNW 17:32:21 14° ENE
Cosmos 1400 Rocket 4.0 17:26:34 10° SE 17:29:27 21° E 17:31:12 16° NE
Cosmos 540 Rocket 3.5 17:25:48 10° NNW 17:30:51 55° ENE 17:35:51 10° SE
Cosmos 1975 Rocket 3.2 17:29:57 10° N 17:34:19 77° W 17:38:40 10° S
Cosmos 1812 2.2 17:32:03 10° S 17:34:50 46° E 17:37:34 10° NNE
Cosmos 1763 Rocket 3.4 17:31:08 10° NNW 17:36:21 74° ENE 17:41:28 10° SSE
Cosmos 2151 Rocket 4.1 17:35:53 10° SSE 17:39:59 37° E 17:44:08 10° NNE
SMAP 3.7 17:36:46 10° S 17:41:21 60° W 17:45:59 10° NNW
Cosmos 44 Rocket 3.2 17:37:56 10° SSW 17:42:40 84° SE 17:47:06 13° NE
OAO 3 Rocket 4.5 17:38:45 10° WSW 17:42:50 30° S 17:46:13 13° ESE
IRS-1C 4.3 17:37:33 10° S 17:42:52 77° WSW 17:48:13 10° NNW
Cosmos 2058 3.0 17:40:30 10° N 17:44:19 44° ENE 17:48:07 10° SSE
Cosmos 1943 Rocket 2.2 17:41:56 10° SSW 17:47:34 82° WNW 17:53:11 10° NNE
Okean 1 Rocket 3.8 17:46:07 10° SSE 17:49:56 30° E 17:51:43 22° NE
CZ-2D R/B 3.7 17:46:25 10° SE 17:50:22 46° ENE 17:54:24 10° N
IRAS Rocket 4.4 17:45:33 10° SE 17:50:49 46° ENE 17:56:05 10° N
Sich 1 Rocket 4.3 17:46:57 10° SSE 17:50:57 32° E 17:53:28 19° NE
SKYMED 2 3.6 17:46:55 10° NNE 17:51:12 56° E 17:55:27 10° S
PSLV R/B 4.0 17:48:22 10° SE 17:52:00 33° ENE 17:55:39 10° N
Helios 1A Rocket 3.0 17:51:58 31° ENE 17:52:44 35° E 17:55:52 10° SSE
Landsat 7 4.3 17:49:13 10° S 17:53:48 63° W 17:58:26 10° NNW
Cosmos 2082 Rocket 2.3 17:49:26 10° NNW 17:54:57 53° ENE 18:00:25 10° SE
Cosmos 1072 Rocket 4.4 17:49:44 10° S 17:55:48 65° E 18:01:51 10° NNE
Cosmos 2278 Rocket 2.4 17:50:43 10° SSW 17:56:21 75° WNW 18:02:02 10° NNE
Aureole 3 Rocket 2.4 17:56:33 10° SSW 17:59:35 68° W 18:02:42 10° N
BREEZE-M DEB (TANK) 3.1 17:57:46 10° WSW 18:00:21 62° NNW 18:03:16 24° NE
BREEZE-M DEB (TANK) 3.7 17:59:08 10° W 18:01:32 39° NNW 18:04:09 21° NE
Cosmos 2369 Rocket 4.0 18:03:19 10° SE 18:04:20 13° SE 18:04:20 13° SE
Cosmos 2251 Rocket 3.5 18:01:53 10° SSW 18:07:09 86° WNW 18:12:30 10° NNE
YAOGAN 1 2.5 18:05:38 10° SSE 18:09:47 56° ENE 18:13:59 10° N
Cosmos 371 Rocket 3.3 18:06:07 10° S 18:10:47 54° ESE 18:12:52 31° NE
Cosmos 304 Rocket 3.7 18:07:14 10° S 18:11:51 58° ESE 18:13:57 31° NE
SJ 16-02 1.1 18:09:09 10° SSW 18:13:27 77° ESE 18:15:42 27° NNE
SL-19 R/B 4.0 18:08:53 10° SSE 18:14:01 63° ENE 18:19:10 10° N
Cosmos 841 Rocket 3.8 18:11:01 10° N 18:16:02 43° ENE 18:17:16 37° E
Resurs 1-3 3.4 18:17:29 10° SSE 18:21:45 72° ENE 18:26:03 10° N
Nadezhda 4 Rocket 3.9 18:15:29 10° N 18:21:48 80° E 18:28:00 10° S
Cosmos 1862 3.0 18:20:21 10° N 18:23:59 83° W 18:27:37 10° S
ARIANE 5 R/B 4.4 18:20:18 10° SSW 18:24:38 30° W 18:29:01 10° NW
ATLAS 2AS CENTAUR R/B 3.7 18:19:34 10° NNW 18:25:09 26° NE 18:25:35 26° NE
Cosmos 1656 Rocket 3.7 18:22:11 10° S 18:27:31 52° ESE 18:28:33 46° ENE
COSMOS 2406 3.3 18:22:10 10° NNW 18:27:44 53° ENE 18:29:08 43° ESE
Cosmos 468 Rocket 4.2 18:24:27 10° NNW 18:29:39 71° WSW 18:34:44 10° S
Okean 2 Rocket 3.2 18:30:23 10° SSW 18:34:46 72° W 18:37:52 19° N
Cosmos 2195 Rocket 4.4 18:29:22 10° N 18:35:41 69° E 18:42:00 10° SSE
Cosmos 1536 Rocket 3.9 18:31:45 10° NNW 18:36:09 65° W 18:40:28 10° S
USA 215 4.2 18:30:50 10° SSE 18:37:04 47° SW 18:43:19 10° WNW
Cosmos 676 Rocket 4.0 18:35:39 10° SSW 18:40:57 85° WNW 18:43:16 35° NNE
Cosmos 1428 Rocket 4.4 18:35:09 10° N 18:41:27 87° W 18:47:45 10° S
Resurs 01 Rocket 4.1 18:46:22 11° N 18:46:22 11° N 18:46:32 10° N
Cosmos 489 Rocket 4.4 18:37:21 10° NNW 18:43:39 87° WSW 18:49:51 10° SSE
Cosmos 2344 4.0 18:35:59 10° NNW 18:43:52 56° NE 18:47:32 38° ESE
Meteor 2-3 Rocket 3.5 18:41:49 10° N 18:47:32 75° ENE 18:49:59 35° SSE
BlueWalker 3 3.8 18:46:56 10° SSW 18:48:23 22° SSW 18:48:23 22° SSW
ISS -1.3 18:48:35 10° WNW 18:50:07 18° NW 18:50:07 18° NW
COSMO-SKYMED 1 3.9 18:57:48 22° NNW 18:59:49 35° WNW 19:03:35 10° SW
USA 281 3.5 19:02:00 47° NNE 19:02:00 47° NNE 19:07:15 10° NNW
Cosmos 968 Rocket 4.4 18:57:38 10° SSW 19:00:38 36° S 19:00:38 36° S
Cosmos 1634 Rocket 4.0 19:02:10 10° S 19:07:38 68° SSE 19:07:38 68° SSE
DELTA 2 R/B (1) 4.4 19:04:13 10° SW 19:08:21 39° SSW 19:08:21 39° SSW
BREEZE-M DEB (TANK) 4.4 19:23:11 10° WNW 19:37:20 66° SW 19:37:20 66° SW
Cosmos 2082 Rocket 4.4 19:34:21 10° NW 19:38:34 22° W 19:42:48 10° SSW
Cosmos 2369 Rocket 4.2 19:44:41 10° SSW 19:46:11 19° SW 19:46:11 19° SW
SJ 16-02 4.3 19:50:35 10° WNW 19:52:08 12° NW 19:52:17 12° NW
ATLAS 2AS CENTAUR R/B 4.2 20:10:03 10° NW 20:13:01 28° NW 20:13:01 28° NW
